Weather in Busselton

Australia     33°38′49″S   115°22′42″E
temp.,
°C
wind,
m/s
gust,
m/s
humid.,
%
clouds,
%
prec.,
mm/h
press.,
hPa
HPBL,
m
6 may, thu
thu623:00+14e119335 0.0 100814
02:00+13ne119558 0.1 100916
05:00+13ene119729 0.6 100916
08:00+14ene129532 1.4 101166
11:00+19nnw23763 1.6 1011601
14:00+21nw335621 1.7 10091265
17:00+17sw25850 0.9 1011168
20:00+13s26966 0.9 1014128
7 may, fri
fri723:00+12s22952 0.0 101542
02:00+12s279717 0.0 1016161
05:00+12s299480 0.1 1017300
08:00+14s278213 0.1 1019251
11:00+16sse1264100 0.0 1020345
14:00+18s245871 0.0 1019927
17:00+16ssw366724 0.1 1020434
20:00+12s228614 0.1 102244
8 may, sat
sat823:00+12sse228497 0.0 102246
02:00+13se118284 0.0 102222
05:00+13se1181100 0.0 102226
08:00+14nne1178100 0.0 102442
11:00+16wnw1267100 0.0 1024317
14:00+19wnw235343 0.1 10221507
17:00+17sw366127 0.0 1022345
20:00+12ssw118044 0.0 102420
9 may, sun
sun923:00+14wsw116569 0.0 102325
02:00+15w1163100 0.0 102330
05:00+14nnw1271100 0.0 102361
08:00+14nne127566 0.0 102486
11:00+18w356598 0.0 1023938
14:00+19sw346277 0.2 10221023
17:00+17ssw356653 0.1 1023256
20:00+13sse23910 0.1 102551
10 may, mon
mon1023:00+13se239067 0.0 102581
02:00+12ese22922 0.0 102541
05:00+11ese22942 0.0 102544
08:00+12e24860 0.0 1026101
11:00+19ne23520 0.0 1025949
14:00+22nne23420 0.0 10221270
17:00+18w11610 0.0 102220
20:00+12sse22810 0.0 102428